TimePST,TemperatureF,Dew PointF,Humidity,Sea Level PressureIn,VisibilityMPH,Wind Direction,Wind SpeedMPH,Gust SpeedMPH,PrecipitationIn,Events,Conditions,WindDirDegrees,DateUTC
12:56 AM,43.9,27.1,52,30.19,10.0,SSE,4.6,-,N/A,,Clear,150,2014-01-11 08:56:00
1:56 AM,41.9,27.1,56,30.21,10.0,SW,5.8,-,N/A,,Clear,220,2014-01-11 09:56:00
2:56 AM,39.9,27.1,60,30.22,10.0,South,5.8,-,N/A,,Clear,170,2014-01-11 10:56:00
3:56 AM,38.8,27.1,63,30.21,10.0,South,8.1,-,N/A,,Clear,170,2014-01-11 11:56:00
4:56 AM,39.9,27.1,60,30.22,10.0,SSE,9.2,-,N/A,,Clear,150,2014-01-11 12:56:00
5:56 AM,41.0,27.1,58,30.22,10.0,SSE,10.4,-,N/A,,Clear,160,2014-01-11 13:56:00
6:56 AM,38.8,27.1,63,30.23,10.0,SSE,8.1,-,N/A,,Clear,160,2014-01-11 14:56:00
7:56 AM,41.9,28.0,58,30.24,10.0,SSE,5.8,-,N/A,,Clear,160,2014-01-11 15:56:00
8:56 AM,47.8,28.0,46,30.24,10.0,Calm,Calm,-,N/A,,Clear,0,2014-01-11 16:56:00
9:56 AM,52.0,28.0,40,30.23,10.0,Calm,Calm,-,N/A,,Clear,0,2014-01-11 17:56:00
10:56 AM,55.9,28.0,34,30.19,10.0,Variable,5.8,-,N/A,,Clear,0,2014-01-11 18:56:00
11:56 AM,57.9,28.0,32,30.14,10.0,NNE,6.9,-,N/A,,Clear,20,2014-01-11 19:56:00
12:56 PM,59.9,27.1,29,30.09,10.0,North,8.1,-,N/A,,Clear,10,2014-01-11 20:56:00
1:56 PM,59.9,27.1,29,30.07,10.0,North,4.6,-,N/A,,Clear,10,2014-01-11 21:56:00
2:56 PM,59.9,27.1,29,30.06,10.0,NE,4.6,-,N/A,,Clear,40,2014-01-11 22:56:00
3:56 PM,59.0,27.1,30,30.06,10.0,NE,4.6,-,N/A,,Clear,40,2014-01-11 23:56:00
4:56 PM,55.9,27.1,33,30.05,10.0,Calm,Calm,-,N/A,,Clear,0,2014-01-12 00:56:00
5:56 PM,52.0,29.1,41,30.04,10.0,SSE,3.5,-,N/A,,Clear,150,2014-01-12 01:56:00
6:56 PM,48.9,28.0,44,30.04,10.0,SSE,5.8,-,N/A,,Clear,160,2014-01-12 02:56:00
7:56 PM,47.8,28.0,46,30.01,10.0,SSW,4.6,-,N/A,,Clear,200,2014-01-12 03:56:00
8:56 PM,50.0,28.0,43,30.00,10.0,North,3.5,-,N/A,,Clear,10,2014-01-12 04:56:00
9:56 PM,47.8,28.0,46,30.01,10.0,South,3.5,-,N/A,,Clear,180,2014-01-12 05:56:00
10:56 PM,46.9,29.1,50,29.98,10.0,SSE,8.1,-,N/A,,Clear,150,2014-01-12 06:56:00
11:56 PM,45.9,28.0,50,29.96,10.0,SSE,6.9,-,N/A,,Clear,160,2014-01-12 07:56:00